User: anonymous   Login
Location: Unspecified
(0.0000°N, 0.0000°E)
Time: 20:09:39
(UTC+00:00)
Language:

XW-2C - Orbit

View from above orbital plane
View from above orbital plane
View from above satellite
View from above satellite

Ground track
Ground track

The orbit data is extracted from the following two-line orbital elements,

1 40906U 15049H   18022.55782480  .00000672  00000-0  39452-4 0  9992
2 40906  97.4581  28.7577 0015363 168.7078 191.4501 15.14984150129445
Epoch (UTC): 22 January 2018 13:23:16
Eccentricity: 0.0015363
inclination: 97.4581°
perigee height: 510 km
apogee height: 531 km
right ascension of ascending node: 28.7577°
argument of perigee: 168.7078°
revolutions per day: 15.14984150
mean anomaly at epoch: 191.4501°
orbit number at epoch: 12944

The dashed part of the orbit path shows where the satellite is in the earth's shadow,  

DLR